Aérodrome :
LOGIN :

S'inscrire | Disclaimer

   EN    FR    IT 

 










Légende :    VFR   VFR Marginal   IFR   IFR Intensif   IFR Très Intensif
Visi : 
Plafond : 
>= 8 km
>= 3000ft
5 à 8 km
1000 à 3000 ft
1500m à 5 km
500 à 1000 ft
800 à 1500m
200 à 500 ft
< 800m
< 200 ft
Symboles :   Orages  Brouillard  Fortes neiges  Fortes précipitations  Vent > 20 kt
SIGMETs :   Divers  Orages  Givrage  Turbulence  Onde Orograph.  Cendres Volcan.







- Altitude de l'aérodrome : 75 ft
- Code IATA : YEO


EGDY - RNAS Yeovilton

DERNIER METAR :
  • 300950Z 18012KT 9999 FEW030 15/11 Q1018 BLU NOSIG

METARs EXPIRÉS :
  • 300850Z 19012KT 9999 FEW030 SCT060 BKN090 14/11 Q1019 BLU NOSIG
  • 300750Z 17008KT 9999 FEW030 BKN060 13/11 Q1019 BLU NOSIG

TAF TAF EGDY
Valide du 30 à 09h jusqu'au 30 à 18h UTC


300659Z 3009/3018 19012G22KT 9999 FEW010 BKN030
PROB30 3009/3010 6000 RA SCT010 BKN015
BECMG 3009/3011 19010KT 9999 SCT040
Pas de NOTAMs connus pour ce terrain.



MET'MAP, la Météo Aéronautique d'un coup d'oeil ! - Copyright ORBIFLY Décembre 2007 - Disclaimer

ORBIFLY MET'MAP TEAM :

Programmation & Développement : Alexandra Zaïnal
Conception & Développement : Baudouin d'Aumeries
Co-Programmation & Développement : Marc-Olivier Méhu
Soutien technique & logistique : Manuel Goepfert

Contact : metmap@orbifly.com




SOURCES & CREDITS :

   NOAA